Terminal Aerodrome Forecast
Issued by NWS Binghamton, NY

Home | Current Version | Previous Version | Text Only | Print | Product List | Glossary On
Versions: 1 2 3 4 5 6 7 8 9 10 11 12 13 14 15 16 17 18 19 20
324
FTUS41 KBGM 061125
TAFSYR
TAF
KSYR 061125Z 0612/0712 19007KT P6SM BKN050
     FM061400 23010G18KT P6SM BKN050
     FM062300 25005KT P6SM SCT070=

USA.gov is the U.S. government's official web portal to all federal, state and local government web resources and services.